Theta_e
331 321 319 322 321 320 323 329 336 338 338 338 339 336 332 332 334 334 334 334 332 329 332 339 343 344 343 344 343 342 341 340 338 337 338 339 341 342 342 342 342 343 344 344 344 343 343 343 343 342 343 342 341 339 337 337 337 336 336 336 334 333 332 333 334 334 334 335 337 338 339 341 342 341 341 340 340 341 338 334 333 333 334 335 334
331 324 321 322 323 320 321 329 336 338 338 338 338 335 331 333 336 335 335 334 331 332 340 343 343 344 344 344 343 342 341 340 339 337 338 339 340 341 342 342 342 343 343 344 343 343 343 343 342 342 341 339 337 335 334 334 334 336 336 335 333 331 331 332 333 334 333 333 335 336 337 338 339 340 340 339 338 337 334 331 330 331 332 334 333
325 325 324 326 326 321 320 327 336 339 338 338 337 333 331 335 337 336 337 333 332 338 342 342 343 344 344 343 343 343 341 341 339 338 338 339 339 340 341 341 342 343 342 343 342 342 341 340 339 339 338 335 334 332 330 327 328 332 334 334 332 330 332 334 334 335 334 333 333 334 335 336 336 335 334 332 331 330 330 331 332 332 332 332 331
324 324 327 331 329 323 321 326 335 339 338 337 335 331 333 336 338 338 336 332 336 342 342 343 344 343 343 343 343 343 342 341 340 339 338 338 340 341 341 339 340 343 342 342 342 340 337 336 335 335 334 333 333 333 330 325 323 324 326 328 327 329 333 335 337 337 335 335 335 332 331 331 330 327 325 324 323 324 329 334 334 334 333 330 328
324 321 326 331 331 327 322 326 336 339 337 337 334 333 336 338 339 337 334 334 340 342 342 343 343 343 343 343 343 342 342 341 340 340 338 338 338 339 341 339 340 342 343 342 341 339 333 333 332 332 331 331 331 331 330 326 324 322 320 319 320 328 333 335 337 338 337 338 339 336 331 325 322 322 322 322 323 324 329 334 335 335 334 330 329
324 319 323 328 330 329 324 328 336 339 337 335 335 335 337 339 338 334 334 339 342 342 342 342 343 343 343 343 342 342 342 341 341 340 339 339 338 337 339 340 339 340 342 342 342 339 332 329 329 329 329 329 328 328 328 327 325 323 321 316 316 326 332 334 336 337 339 339 340 340 336 328 320 320 323 324 329 329 330 334 335 336 334 330 329
324 319 322 326 329 328 324 328 337 340 336 336 336 336 338 339 335 334 338 342 342 342 342 342 343 343 342 342 341 341 341 340 341 341 340 339 339 338 339 340 338 337 340 341 342 340 332 328 328 327 328 328 327 326 326 326 325 324 322 316 316 325 331 332 335 335 338 338 339 340 338 333 320 319 326 326 331 333 332 333 334 334 334 330 327
324 319 320 322 327 327 324 328 337 338 335 336 337 338 338 336 334 336 341 342 342 343 343 343 342 342 341 340 340 340 340 340 340 340 339 338 337 337 337 339 338 338 339 340 341 340 332 327 327 326 327 327 326 326 326 326 325 324 321 318 320 327 331 332 334 335 336 336 337 340 339 334 319 318 329 330 333 336 333 332 333 334 334 331 327
324 319 317 319 327 326 323 329 334 335 335 337 338 338 335 333 335 340 342 342 343 344 343 342 341 340 340 339 338 337 337 338 339 340 339 338 336 334 335 337 337 338 339 340 341 339 333 327 326 326 327 328 327 327 327 327 323 321 321 321 325 329 331 333 334 335 336 335 337 339 337 334 322 318 328 332 335 336 335 331 330 331 332 330 328
325 319 315 317 327 328 324 327 330 333 335 336 336 335 333 336 339 342 342 342 343 343 342 341 340 340 338 336 333 331 328 327 330 333 335 336 336 333 333 335 336 338 339 340 340 338 334 327 325 325 328 329 327 328 329 325 319 320 324 326 329 331 333 334 335 335 335 335 336 338 337 336 327 319 322 330 335 335 335 333 329 330 331 329 329
327 319 314 316 328 329 325 325 328 333 335 334 334 333 336 340 341 342 342 343 343 342 341 340 340 338 334 328 324 323 320 321 324 324 325 328 333 334 332 333 335 337 339 339 339 336 332 327 325 325 328 329 327 328 329 323 318 322 326 329 331 332 334 334 334 335 333 335 338 337 335 334 329 322 318 325 334 335 335 333 331 331 331 329 330
332 319 314 319 328 329 327 326 328 333 334 335 336 337 340 341 341 342 342 343 343 342 341 340 337 334 327 322 320 320 321 326 331 330 325 323 329 333 331 330 333 335 337 337 335 333 330 327 325 325 328 330 328 328 329 324 318 323 328 330 333 333 334 334 334 334 333 335 337 335 334 333 329 324 320 321 329 333 332 331 328 330 331 330 331
333 320 315 322 328 329 328 327 327 331 334 337 339 340 341 341 342 342 343 343 342 342 341 338 334 329 324 322 322 320 322 327 331 331 328 323 324 327 328 329 332 333 333 332 331 330 329 327 325 325 328 330 329 329 330 326 319 323 330 332 333 334 334 335 334 334 334 334 336 334 335 334 327 323 322 320 323 326 327 326 325 329 331 330 331
330 321 317 322 329 332 331 330 331 334 337 340 340 340 341 342 342 342 343 343 342 341 339 336 331 328 326 325 323 321 321 322 323 322 320 317 317 320 323 327 331 333 331 327 327 330 328 327 326 325 327 330 330 329 330 328 321 322 330 333 333 334 334 335 334 333 334 334 335 334 335 332 325 323 323 322 321 321 321 323 323 326 328 329 330
328 321 317 324 333 335 335 336 336 338 339 339 339 340 342 343 342 342 343 342 342 340 338 333 330 329 328 326 323 321 320 319 317 315 313 311 311 313 316 321 327 330 329 324 325 329 327 326 326 324 326 329 331 330 329 329 325 321 327 332 332 334 335 334 334 334 333 334 336 333 334 332 329 327 325 323 321 321 322 325 327 327 329 329 329
324 318 318 329 336 338 339 339 339 339 338 338 340 342 343 342 342 342 343 343 342 339 336 332 330 330 329 328 326 325 323 321 319 316 313 310 308 308 309 312 318 323 325 322 323 328 327 326 327 325 324 327 330 331 330 329 327 324 324 328 331 334 335 335 334 334 334 335 336 333 333 332 333 331 327 324 321 323 328 330 330 330 331 331 329
321 317 319 331 338 338 340 340 340 340 339 340 342 343 343 342 342 342 343 343 341 338 335 332 332 332 331 331 331 331 329 327 325 322 320 315 310 307 307 307 310 314 317 318 320 326 327 326 327 325 324 325 328 330 330 329 329 327 325 325 329 334 334 335 334 333 335 335 334 333 333 334 334 331 327 324 320 325 332 333 331 330 331 331 331
323 322 323 332 338 339 340 340 340 341 342 342 343 343 342 342 342 342 343 342 341 338 335 332 333 334 333 333 333 334 332 331 330 328 327 323 316 311 308 307 307 308 310 312 315 322 326 327 327 326 325 324 325 327 328 329 329 328 328 326 327 331 333 335 335 335 337 335 334 333 334 335 333 331 326 325 322 325 331 332 332 332 331 331 331
329 329 331 335 339 340 341 340 340 342 342 343 344 343 342 342 342 342 343 342 340 338 335 334 334 335 334 334 335 335 333 334 334 332 331 328 322 318 314 311 308 308 308 310 312 317 323 326 326 326 326 325 325 325 326 327 327 328 328 327 325 328 332 334 333 334 338 337 335 334 334 334 333 331 325 324 324 325 328 328 329 331 331 330 331
333 334 337 338 339 339 341 340 341 343 343 343 344 344 343 342 343 342 343 342 339 338 336 335 335 336 335 336 338 339 337 337 337 337 333 326 324 322 320 317 313 310 309 310 312 316 320 324 324 325 325 324 324 324 324 325 325 326 326 326 325 324 326 328 326 330 337 337 336 335 334 333 332 331 327 324 324 324 326 325 327 330 330 331 332
337 337 338 337 338 339 340 341 342 343 343 344 344 344 343 342 343 342 342 341 339 338 337 336 336 336 336 338 341 341 340 338 339 339 332 325 325 324 323 322 318 316 314 312 312 314 317 320 321 322 323 323 323 323 322 323 323 324 326 329 329 328 326 324 322 326 335 337 335 335 332 332 331 331 331 327 324 324 325 326 328 329 331 331 332
340 339 338 337 338 338 338 340 341 343 343 344 344 343 343 343 343 342 342 340 339 339 338 338 337 337 339 341 343 342 341 340 339 338 332 328 331 330 326 324 322 322 323 321 317 315 315 315 317 317 318 318 319 320 319 319 319 320 325 331 334 333 332 329 326 327 335 337 335 333 331 332 332 333 333 329 324 324 325 328 329 328 330 332 332
341 340 339 338 337 337 337 337 338 341 342 342 342 342 342 343 342 342 342 340 339 339 339 338 336 338 341 342 342 342 342 341 338 336 333 329 334 337 335 333 330 330 333 333 328 325 323 323 324 322 320 320 322 325 324 322 321 321 326 330 332 334 335 333 329 328 334 338 336 334 333 333 333 334 333 329 326 325 324 327 329 329 330 332 332
341 341 340 338 336 336 337 336 337 340 341 340 340 341 342 342 342 342 341 340 340 339 339 339 337 339 342 341 341 341 340 338 334 336 337 333 335 339 339 339 337 337 339 339 336 335 334 334 335 334 332 332 333 333 332 330 328 328 328 329 332 335 335 335 332 329 333 338 337 335 334 334 334 334 332 330 328 327 326 327 330 330 330 330 330
342 341 339 337 337 338 336 336 337 338 338 337 337 339 342 341 341 341 341 340 339 340 340 341 340 340 341 340 341 341 339 336 334 336 338 339 339 339 340 340 340 340 340 339 339 339 338 338 338 338 338 337 338 337 336 335 335 333 331 331 334 334 334 335 335 332 332 336 337 336 334 334 334 333 333 332 330 329 328 328 330 331 330 329 329
343 341 340 339 340 339 337 338 338 336 337 336 336 338 340 340 340 340 340 339 340 342 342 342 342 341 341 340 340 341 339 336 337 338 340 341 341 341 341 340 339 340 340 339 339 339 338 339 339 340 338 338 339 339 339 338 338 337 334 335 334 333 332 332 334 334 333 334 336 335 334 334 334 334 333 333 332 331 330 329 330 331 331 329 329
343 342 342 342 341 339 339 339 337 336 337 336 336 337 337 339 339 339 338 339 341 341 341 341 342 341 339 339 338 337 336 336 338 340 341 342 341 341 341 341 341 341 341 341 340 339 340 340 340 340 340 340 341 341 340 340 340 338 337 337 336 335 333 332 333 334 334 334 333 333 333 334 334 334 334 334 333 333 331 331 331 331 331 331 330
344 344 344 343 342 341 340 338 336 337 337 336 336 337 337 338 339 340 338 339 340 339 340 341 340 339 336 336 336 334 334 337 339 340 341 342 341 341 342 342 343 342 342 341 341 340 340 341 340 340 341 341 341 341 340 340 340 339 338 338 338 337 336 335 334 333 334 334 333 333 333 333 333 334 333 334 335 334 333 332 331 331 331 332 331
346 345 345 344 342 342 339 337 338 337 336 336 336 338 339 338 339 339 338 338 339 339 340 339 338 337 334 333 334 336 337 339 340 341 341 342 342 342 343 343 343 342 342 342 342 341 341 341 340 341 341 341 341 341 340 340 340 340 339 339 339 338 337 337 336 335 335 334 334 334 334 334 334 334 334 335 336 335 334 333 332 331 332 332 332
346 345 345 344 343 341 338 338 338 336 336 336 337 338 338 339 339 339 338 338 339 339 339 338 337 335 334 334 336 338 340 341 341 342 343 343 343 344 344 343 342 342 342 342 342 341 341 341 341 340 340 340 340 340 340 340 339 339 340 340 340 339 338 338 337 337 336 335 334 334 334 334 335 335 336 336 336 336 335 334 333 332 332 332 332
343 343 344 344 342 340 338 339 339 336 337 337 337 338 338 338 338 338 338 338 338 339 338 337 336 335 336 338 339 340 341 342 342 343 343 343 344 344 343 342 342 342 342 342 341 341 340 340 340 340 340 340 340 339 339 339 339 339 339 339 339 339 339 338 338 338 337 336 334 334 334 334 335 335 336 336 336 336 336 335 334 333 333 332 332
341 340 343 344 341 340 339 340 339 338 338 337 337 339 339 338 337 338 338 337 337 338 337 336 336 337 339 340 340 341 342 342 343 343 343 342 342 342 341 341 341 342 342 341 340 340 340 340 340 340 340 339 339 339 339 339 338 338 338 338 338 338 338 338 338 338 338 337 335 334 335 335 335 335 336 336 336 337 337 337 336 334 333 332 332
339 339 341 343 342 341 340 339 338 338 338 336 337 339 339 337 337 338 337 337 338 337 337 337 339 340 340 341 341 342 342 342 343 343 342 342 341 341 340 340 341 341 341 340 340 340 340 340 339 339 339 339 339 338 338 338 338 337 337 337 337 337 337 337 337 337 337 338 337 336 336 336 335 335 335 335 336 337 337 337 336 336 334 333 333
339 340 340 341 341 340 339 338 336 336 337 337 338 339 338 338 338 338 337 338 338 336 338 340 341 342 341 341 340 340 343 343 342 342 341 340 340 340 340 340 341 341 340 340 340 340 339 339 338 338 338 338 338 337 337 338 337 336 336 336 336 336 336 337 336 337 337 337 337 337 337 337 336 337 335 334 335 336 336 336 336 336 336 335 334
340 340 339 340 339 339 339 338 336 337 338 338 338 338 338 337 337 337 337 339 338 336 340 342 342 342 341 341 340 340 342 342 342 341 340 340 340 340 340 340 340 340 340 339 339 338 338 337 337 336 336 335 336 336 336 336 336 335 335 334 335 335 335 335 336 336 336 336 336 337 338 337 338 338 335 334 334 334 334 334 334 335 336 336 335
341 340 339 339 339 338 339 337 336 338 339 337 338 339 338 338 337 338 339 339 339 338 341 343 342 341 341 340 340 340 341 342 342 342 341 341 341 340 340 340 339 339 338 337 337 337 337 336 335 334 334 334 334 335 334 335 335 334 333 333 334 334 334 333 333 334 335 336 336 337 337 337 337 337 335 334 335 335 334 333 333 334 335 336 335
341 339 339 339 339 338 338 336 337 339 338 337 339 339 339 340 339 339 340 340 340 341 342 341 341 341 340 339 339 339 340 340 341 342 342 341 340 339 339 339 338 337 337 336 335 336 335 334 333 333 333 333 333 333 333 333 334 333 332 332 333 333 332 332 332 333 334 335 335 336 336 335 335 335 335 335 335 336 335 334 334 333 334 334 334
339 338 338 338 338 337 335 335 338 339 337 338 340 340 340 340 340 340 340 341 341 341 341 341 341 339 338 338 338 338 338 339 340 341 341 340 338 337 337 337 336 335 335 335 334 334 333 332 333 332 332 332 332 332 333 333 333 332 332 332 332 332 332 332 332 333 334 335 335 336 336 336 335 335 335 336 336 335 335 334 334 334 334 334 334
338 338 338 338 337 336 334 336 339 338 338 340 341 340 340 340 341 341 341 341 341 341 341 340 340 339 338 336 336 336 336 337 338 338 338 338 337 335 335 335 334 334 334 333 333 333 332 332 332 332 331 331 331 332 333 333 333 332 332 331 331 331 331 331 333 333 333 333 334 334 334 334 336 336 335 335 335 335 335 334 333 334 334 334 334
339 338 338 337 336 336 335 337 339 338 339 341 340 340 340 340 341 341 341 340 340 341 340 339 339 338 337 336 336 337 337 336 337 337 336 335 335 334 334 334 334 333 333 332 332 332 331 331 331 331 331 331 331 332 332 333 332 332 332 331 331 331 330 331 332 330 329 330 331 331 331 332 334 335 335 334 334 334 334 334 333 333 333 333 334
338 338 338 337 337 337 336 338 339 338 339 340 340 340 341 341 340 341 341 340 340 339 338 338 337 337 336 337 337 336 336 335 335 335 334 334 334 333 333 333 333 332 332 332 331 331 331 331 331 331 331 332 332 332 332 333 333 332 332 332 331 331 330 331 331 329 329 329 329 330 331 332 333 333 333 334 334 334 334 334 334 333 333 333 333
338 338 338 338 338 338 337 339 339 339 340 340 340 341 341 340 340 341 340 338 338 338 337 337 336 336 337 336 336 335 335 334 333 333 333 333 332 332 331 331 331 330 331 331 330 330 331 331 332 332 332 332 332 331 332 333 333 333 332 332 332 331 330 330 330 329 329 329 329 329 329 331 331 331 332 333 334 334 334 334 334 333 333 332 332
337 339 339 339 340 340 340 340 341 340 340 340 340 341 340 341 340 340 339 337 336 337 336 336 336 336 336 336 335 334 334 333 332 332 331 331 331 330 330 330 330 330 330 330 330 331 332 332 332 332 331 332 331 331 332 332 333 333 331 332 333 333 332 330 330 330 329 329 329 329 329 329 330 330 331 332 332 333 333 333 333 333 332 331 331
337 339 340 341 341 341 341 341 341 341 341 340 340 340 340 340 340 339 337 336 336 336 336 336 336 336 335 335 335 334 334 333 332 331 330 330 330 330 330 331 331 331 330 330 331 332 332 331 331 331 331 332 332 331 332 332 332 332 331 332 333 333 333 331 330 331 329 329 329 328 329 329 328 329 330 331 331 332 332 333 332 331 331 331 331
337 338 340 341 341 341 341 341 341 341 341 341 340 340 340 339 338 337 336 335 336 337 337 337 336 336 335 334 333 333 333 332 331 330 329 329 330 331 331 331 331 331 331 331 331 331 330 331 331 331 331 332 332 332 331 331 331 331 331 332 332 333 333 331 331 331 329 329 329 328 328 328 328 328 328 330 330 331 332 333 332 331 330 331 332
336 338 339 341 341 342 341 341 341 341 340 340 340 340 339 338 337 336 335 335 336 337 338 337 336 336 335 334 333 332 331 329 329 329 329 329 330 331 331 331 331 330 330 330 330 330 330 330 330 331 331 331 332 331 331 331 331 330 330 330 331 332 331 331 332 331 329 329 328 328 328 328 328 328 328 329 329 330 331 332 332 332 330 330 331
337 337 338 340 341 341 341 340 339 340 339 339 339 339 338 338 336 335 335 336 337 337 337 337 337 336 335 334 332 330 329 329 329 329 330 330 330 330 330 331 330 330 330 329 329 329 330 330 330 330 331 331 331 331 330 330 330 329 328 328 329 329 329 330 330 330 330 329 328 327 327 327 328 328 328 328 328 330 331 332 333 332 332 331 331
339 339 339 340 342 341 340 340 339 339 339 338 338 337 337 336 335 335 335 336 337 336 336 336 336 335 334 332 330 329 329 329 329 330 330 330 330 330 330 330 329 329 328 327 328 329 330 330 330 329 329 329 329 329 328 327 328 327 326 326 327 327 327 327 327 327 329 330 328 327 327 327 327 327 328 328 329 330 330 330 331 332 331 331 331
340 340 340 341 341 341 340 340 339 339 338 338 337 337 337 335 335 335 335 336 336 335 336 336 335 334 332 331 330 329 330 330 329 329 329 329 329 329 329 329 328 327 326 327 328 329 330 329 329 328 327 326 327 326 324 325 326 325 324 324 325 325 324 325 325 325 327 328 327 327 326 326 326 327 327 327 329 329 328 328 328 329 330 331 331
341 340 341 340 340 340 340 339 339 338 338 338 337 336 335 335 335 335 335 334 334 335 335 334 333 332 331 331 330 330 330 330 329 328 328 328 328 328 328 327 326 325 325 327 328 329 328 326 326 327 325 324 324 323 322 323 323 323 323 323 324 324 323 324 324 325 326 326 326 326 326 326 326 326 327 327 329 329 328 328 326 326 327 328 329
340 339 340 340 340 340 339 339 339 338 338 337 336 335 334 334 334 334 334 333 334 335 335 334 332 330 331 331 330 329 330 329 328 327 327 327 327 327 326 325 324 324 326 327 327 327 325 324 326 326 323 322 322 321 321 322 322 322 322 322 323 322 322 323 324 324 325 325 325 325 325 325 325 326 326 327 328 328 327 328 325 325 326 325 327
Wind_Speed
22 22 21 19 18 18 17 17 18 19 19 19 19 19 19 18 16 15 13 12 11 11 12 14 15 15 15 15 16 17 17 17 17 17 17 17 16 16 16 15 15 15 14 15 15 15 16 15 14 14 13 12 12 12 13 13 12 12 11 11 12 12 11 11 11 12 12 11 12 12 12 13 13 15 15 15 14 12 11 11 11 11 11 10 9
23 23 22 20 19 18 18 18 19 19 19 19 20 20 19 18 16 15 13 12 11 12 13 14 14 15 14 15 15 16 16 16 16 16 16 16 16 15 15 15 15 15 15 15 16 16 15 15 14 13 13 13 13 13 13 13 12 11 10 10 10 10 9 10 10 10 10 10 10 11 11 12 12 13 13 12 11 10 9 9 10 11 10 9 9
26 24 23 21 20 19 19 19 19 20 20 19 20 20 20 18 16 15 13 12 13 14 13 13 14 14 14 14 15 15 15 15 15 15 15 15 15 14 15 15 15 14 15 16 16 15 14 14 14 14 13 13 13 12 12 11 10 9 7 8 8 8 8 9 9 9 8 9 9 9 10 11 11 10 10 9 9 9 9 9 11 12 11 9 9
28 26 24 21 20 20 19 20 20 20 20 20 20 20 20 18 16 15 14 13 14 14 14 14 14 14 13 13 13 14 14 14 14 14 14 14 14 14 14 14 14 14 15 15 15 14 14 14 13 12 12 11 10 9 9 9 8 7 5 5 6 6 6 7 8 8 7 8 9 8 7 8 9 8 8 8 8 9 9 10 10 11 11 10 10
30 27 25 23 22 21 20 21 20 21 21 20 21 20 20 18 17 15 14 15 15 15 14 14 13 13 13 13 13 14 14 14 14 14 13 12 12 13 13 13 13 13 14 15 14 13 13 12 12 11 10 9 8 7 7 7 6 6 5 4 5 5 5 5 6 6 6 8 7 8 7 5 7 7 7 8 9 10 10 11 10 9 10 10 11
29 27 26 25 23 21 20 21 21 21 22 21 21 20 20 18 17 16 16 17 16 15 14 14 13 13 12 12 12 13 13 13 14 13 13 12 11 12 13 12 11 12 13 13 12 11 11 11 11 10 9 9 8 7 6 5 5 5 4 3 5 5 5 4 4 4 4 5 3 3 4 4 6 8 8 9 10 11 10 11 11 8 6 9 11
29 28 26 26 24 21 21 21 21 21 22 22 21 21 20 19 18 17 18 17 16 15 14 14 13 12 12 11 11 11 11 12 12 13 12 12 12 12 12 12 10 10 10 11 10 10 10 11 10 10 9 9 8 8 6 5 4 5 4 5 7 7 6 4 3 3 3 4 4 2 2 1 5 7 8 8 9 10 10 10 10 8 5 7 9
30 28 26 26 24 22 21 22 23 21 22 22 21 21 20 20 20 19 19 17 16 15 14 13 12 11 11 10 9 9 10 10 10 11 11 11 12 11 11 12 11 9 9 10 9 9 10 10 10 10 9 9 9 8 7 6 5 5 6 8 9 7 5 3 3 2 2 3 5 4 7 4 3 7 8 7 9 9 9 9 9 8 6 6 8
30 28 27 26 24 23 23 23 23 22 23 23 22 22 22 22 21 20 19 17 16 14 14 13 12 10 10 9 8 8 8 8 9 9 10 10 10 9 10 11 11 9 9 9 8 7 8 9 9 9 9 9 8 8 8 8 7 6 7 8 8 6 4 2 1 2 4 7 3 8 12 6 3 6 7 8 9 8 8 8 7 8 6 6 7
30 28 27 27 25 24 24 24 23 23 24 24 23 23 23 22 22 20 19 18 16 14 13 12 11 9 8 7 6 6 6 7 8 8 9 9 9 9 9 10 10 10 9 7 5 7 7 8 8 9 9 8 8 8 9 9 7 7 8 8 7 5 3 2 3 5 7 8 7 13 11 4 3 5 5 7 9 7 6 6 6 7 6 6 8
30 29 27 27 26 25 25 24 24 24 24 24 24 23 23 22 21 20 19 17 15 14 13 11 10 9 7 6 6 6 6 7 7 7 8 9 10 10 9 10 10 10 9 7 6 6 7 7 8 8 8 8 8 8 9 9 7 8 8 7 5 3 2 2 5 6 8 7 12 11 5 1 3 4 3 5 7 7 5 5 5 6 6 6 8
28 29 28 27 26 26 26 24 25 25 24 24 23 23 22 22 21 20 19 17 16 14 13 11 9 8 7 7 7 6 6 7 7 8 8 8 10 11 11 10 10 10 9 7 6 5 6 7 7 7 8 8 8 8 9 8 7 8 8 5 4 2 1 4 6 7 10 7 14 7 3 0 3 4 2 4 5 5 5 4 4 6 6 6 7
28 29 28 28 27 26 26 25 25 25 24 23 22 22 22 21 20 19 18 17 16 14 12 10 9 8 8 7 7 7 6 7 7 7 7 8 9 11 11 11 10 10 8 6 7 6 7 7 6 6 7 7 7 7 8 8 7 8 7 5 4 2 2 5 6 8 10 8 13 4 3 1 4 4 2 2 4 4 4 3 3 5 6 6 6
29 29 29 29 28 26 25 26 25 25 24 23 23 23 22 20 20 19 18 17 15 14 12 10 9 9 8 8 7 7 6 6 6 6 5 6 8 9 11 12 11 11 8 6 8 8 8 7 6 5 6 7 7 6 7 7 6 7 7 5 3 2 3 5 5 7 10 8 10 3 2 2 5 6 4 1 1 3 3 3 3 4 5 6 6
30 29 29 29 27 24 25 26 26 25 24 24 24 23 22 20 20 19 18 17 15 14 12 11 9 9 9 9 8 8 7 7 7 7 7 6 7 8 9 12 12 11 9 6 7 8 8 7 6 4 5 5 5 6 6 6 6 5 6 5 3 2 2 5 5 7 10 6 9 2 2 3 4 7 6 4 1 2 3 4 4 4 5 5 5
30 30 30 29 26 24 25 25 26 26 25 25 24 23 21 20 20 19 18 16 15 14 12 11 10 10 10 10 9 9 8 8 8 8 8 7 7 7 7 9 11 11 9 6 6 7 8 7 5 4 3 4 4 4 5 5 5 4 4 3 2 1 2 4 5 6 10 4 9 3 3 3 5 7 7 6 3 1 4 4 4 4 5 4 3
31 30 31 29 27 26 25 25 25 25 25 25 24 22 21 20 20 19 18 16 15 14 12 11 10 10 10 10 10 9 8 8 8 8 8 8 7 7 6 6 7 8 8 7 5 6 6 6 5 3 2 2 3 3 3 3 3 2 0 1 3 1 2 3 4 4 9 1 9 4 4 4 5 6 8 7 3 1 4 4 2 3 3 3 3
31 30 31 29 27 27 26 25 25 25 25 24 22 21 20 20 19 19 17 15 14 13 11 11 10 10 10 10 9 8 8 8 8 8 9 8 8 8 8 6 4 4 5 5 4 4 5 4 3 2 1 1 1 1 2 2 2 2 2 1 2 3 2 2 3 3 9 5 9 7 6 5 6 6 8 7 4 2 5 4 4 4 3 3 3
29 29 29 28 26 26 26 26 25 25 24 23 22 20 19 19 18 18 17 15 14 13 11 10 10 9 9 9 9 8 8 9 8 8 9 9 8 8 9 7 6 4 2 3 3 3 4 4 3 4 3 3 3 3 3 3 3 3 3 2 3 4 4 3 3 3 8 8 10 10 8 6 6 7 8 7 5 3 5 4 5 5 3 2 3
28 27 27 26 26 26 26 26 26 24 24 23 22 20 19 19 18 17 16 15 14 12 11 10 10 9 8 9 9 9 8 8 8 8 8 8 8 7 8 7 7 6 3 1 2 3 4 4 5 5 5 5 6 6 6 5 5 5 5 4 4 5 6 7 7 7 8 9 10 12 9 7 7 7 7 8 7 4 4 3 4 5 3 3 4
26 26 25 25 25 26 26 26 25 24 23 23 22 21 19 19 18 17 16 14 13 12 11 10 10 8 8 8 8 7 7 7 7 7 8 9 10 8 7 7 7 7 5 3 1 1 3 5 6 7 8 8 9 9 9 9 9 9 7 6 6 7 7 8 10 10 9 8 9 12 10 9 8 8 8 8 7 5 4 2 3 4 5 5 5
26 26 25 26 25 26 26 25 24 22 22 22 21 21 20 19 18 17 16 14 14 12 11 10 9 8 7 7 6 6 6 5 6 6 7 8 10 10 8 7 6 6 6 4 3 2 2 3 5 7 8 9 10 11 12 12 12 11 9 9 11 11 10 10 11 10 10 10 10 13 13 12 9 9 8 8 8 7 5 3 2 3 5 7 6
25 26 27 27 26 26 25 24 24 22 21 21 20 20 20 19 18 17 15 14 14 13 11 10 9 8 7 6 5 5 5 3 5 6 6 6 7 8 8 7 6 5 6 6 4 3 3 3 5 6 7 8 9 11 12 12 11 9 9 12 14 14 13 12 11 10 10 11 13 14 14 13 11 10 9 9 8 8 8 6 5 4 5 9 8
24 27 30 29 27 27 25 24 25 23 21 20 20 20 19 18 17 16 15 14 14 13 11 9 9 8 6 6 5 5 5 3 3 3 5 5 4 5 6 6 6 5 6 7 6 5 5 5 7 7 8 8 9 11 11 11 10 9 11 13 14 14 15 13 11 10 10 12 15 16 15 14 13 12 11 9 9 10 10 8 8 6 6 10 10
27 29 30 29 28 27 26 26 26 23 21 21 20 21 19 17 17 15 14 13 13 12 11 9 8 6 5 5 3 4 4 2 0 2 5 5 4 4 5 6 6 5 6 7 8 8 7 8 10 10 10 10 11 12 11 12 13 14 16 15 15 15 16 15 13 12 9 11 16 17 16 16 15 14 12 11 11 11 12 11 9 8 7 10 10
29 30 29 30 29 27 27 28 26 24 22 20 20 21 20 16 16 15 13 13 12 12 11 10 9 5 3 3 3 4 4 3 3 3 5 5 5 5 5 6 6 7 7 7 8 9 10 10 12 13 14 13 12 13 13 14 16 17 17 16 17 17 17 17 16 15 12 11 16 19 17 16 15 14 13 13 13 12 13 12 11 10 9 9 9
30 29 29 30 29 29 29 28 26 25 22 20 22 22 20 17 15 14 12 12 11 11 10 10 9 7 4 4 4 5 5 4 3 3 3 4 5 6 6 6 6 8 7 8 9 9 10 10 12 13 13 13 13 15 15 14 16 17 17 16 16 17 17 16 17 18 17 16 17 18 18 17 16 16 16 16 15 14 14 14 13 12 10 10 10
29 28 29 30 31 31 30 28 27 27 23 21 24 23 20 18 16 14 13 11 11 11 10 11 10 11 9 6 6 4 5 4 4 4 3 3 4 6 6 6 6 7 7 8 9 9 9 10 12 13 12 12 14 16 16 16 17 17 17 17 17 17 18 17 16 18 18 19 20 20 19 18 18 18 19 18 17 16 16 16 15 14 13 12 13
29 28 29 29 32 32 29 29 28 26 23 23 25 22 20 20 16 15 14 12 12 11 11 14 12 10 9 6 6 5 4 4 5 4 5 5 4 5 5 6 6 6 6 7 9 9 8 10 11 12 12 13 14 16 16 17 18 17 17 18 19 19 19 19 19 20 18 17 20 21 20 20 19 19 20 19 18 17 17 17 17 16 15 15 16
29 29 28 29 32 32 29 29 27 24 23 24 24 21 21 21 18 15 14 14 12 13 14 15 10 6 5 5 5 4 4 5 4 3 5 5 4 5 6 6 6 5 5 6 7 8 8 9 10 11 12 13 15 15 15 17 17 16 16 17 19 19 20 20 21 22 19 16 17 19 21 21 19 18 19 19 19 19 18 19 19 18 18 18 18
29 28 27 30 31 31 29 25 23 24 24 24 23 20 19 21 19 15 17 16 12 13 14 11 7 4 6 6 4 5 4 4 4 4 5 5 4 5 5 6 6 5 6 7 7 8 10 10 9 10 12 14 15 15 15 16 17 16 16 17 18 18 19 19 20 21 20 19 18 18 19 21 20 18 18 19 19 19 19 20 20 20 20 20 19
25 25 27 30 29 29 26 22 21 23 24 24 22 17 18 20 18 14 17 16 11 11 10 7 5 5 6 5 5 4 4 4 4 4 4 5 6 6 5 6 6 6 7 8 9 9 10 10 11 11 13 14 15 16 16 17 17 17 17 17 18 18 18 19 19 20 20 20 19 17 17 19 19 18 18 20 21 21 20 21 22 22 23 22 20
17 20 25 28 27 27 24 20 22 22 20 20 19 15 16 18 15 13 13 13 11 10 8 7 7 7 8 7 6 4 1 3 4 4 4 5 6 7 7 5 5 6 7 9 10 10 10 11 12 12 13 14 15 15 15 16 17 17 17 17 18 18 19 19 20 20 20 20 19 18 19 20 20 19 21 24 24 23 23 23 24 24 24 24 21
16 17 21 25 25 26 23 20 21 19 17 17 18 16 16 16 14 13 12 11 12 11 10 9 8 9 8 7 7 5 3 2 4 4 5 4 5 7 6 5 5 7 8 9 9 10 11 12 12 13 14 14 15 15 16 17 17 17 17 17 17 18 18 19 20 20 20 20 20 19 20 22 22 22 23 24 24 24 25 23 23 25 25 25 23
20 16 18 21 23 25 23 22 21 17 18 19 18 17 16 15 14 14 13 12 13 12 11 10 9 8 7 7 5 6 4 2 3 4 5 4 5 7 7 7 7 8 8 9 9 9 11 11 12 14 16 16 16 16 16 17 17 18 18 17 17 18 18 18 19 20 21 21 21 20 20 22 21 20 22 24 25 25 26 25 24 26 26 27 26
28 23 24 23 22 24 23 24 22 18 19 20 18 18 18 17 16 16 15 13 13 12 11 10 9 7 6 6 5 5 5 1 3 4 5 4 6 7 6 7 7 9 9 10 10 10 11 12 12 15 17 18 18 18 18 18 18 19 19 19 18 19 19 19 19 20 20 20 21 21 21 20 19 21 22 23 24 24 25 27 27 27 27 28 28
34 34 34 29 24 24 24 24 21 19 21 20 17 18 19 19 19 17 14 14 13 11 10 10 8 7 5 6 5 5 4 1 3 3 3 5 6 5 5 6 8 9 9 10 10 11 13 14 15 16 17 19 19 20 20 20 20 21 21 20 20 21 21 20 20 20 20 20 21 22 21 19 19 23 23 20 22 23 24 26 26 26 27 28 29
32 34 31 27 27 26 25 23 19 20 21 19 17 17 19 20 18 16 14 13 12 10 10 9 7 6 6 6 6 5 4 2 3 4 3 4 6 7 7 7 8 9 8 9 10 12 13 15 17 17 17 18 19 20 21 20 21 23 22 21 22 21 20 20 20 21 20 21 21 20 20 19 20 24 24 21 21 22 23 24 24 25 26 27 28
29 29 27 27 28 26 25 22 18 19 18 16 17 18 18 19 17 15 14 12 11 11 10 8 7 6 6 5 5 5 6 5 4 5 4 4 6 7 7 7 8 9 9 10 12 13 14 16 17 18 18 18 18 19 20 21 22 23 22 23 22 19 19 19 18 20 20 19 19 18 19 19 20 23 25 25 24 23 23 23 23 24 25 25 27
29 29 29 30 29 28 27 23 19 19 18 17 18 18 18 18 16 15 14 13 12 11 10 9 9 7 7 6 6 7 8 7 4 4 4 4 5 6 6 6 8 9 10 11 13 14 15 17 17 19 21 20 19 19 20 22 23 23 24 24 20 17 18 16 16 21 21 17 17 17 18 18 19 21 24 25 25 25 24 22 22 22 24 24 26
28 30 32 30 28 29 30 27 23 22 20 20 20 19 19 18 17 16 15 14 12 12 12 11 10 9 9 10 11 12 10 7 4 3 3 3 4 5 6 7 8 9 10 11 13 13 14 17 18 19 20 20 21 20 21 21 21 22 23 24 20 17 15 12 17 23 20 18 17 18 19 18 18 18 20 22 23 24 23 23 22 22 23 23 24
29 30 31 30 29 30 31 30 27 25 23 22 21 20 19 19 18 17 15 15 14 13 14 13 11 11 11 13 15 14 10 8 7 6 5 4 4 6 7 8 9 9 10 10 12 13 15 17 18 20 19 19 20 20 21 19 18 17 16 16 15 16 11 9 21 23 16 20 20 19 21 19 19 20 20 21 21 22 23 23 22 21 22 23 23
29 29 29 30 29 30 30 30 28 26 24 23 22 21 19 18 17 17 17 17 16 15 16 16 14 14 14 13 13 10 8 7 7 7 7 6 6 7 7 9 10 10 10 11 13 14 16 17 18 20 20 20 19 19 19 18 17 16 11 7 6 10 7 8 23 22 14 19 19 20 22 20 22 22 21 22 22 22 22 23 23 22 21 21 21
28 28 28 29 29 29 29 29 28 26 25 24 23 21 20 18 17 17 17 17 17 17 17 16 16 15 13 11 8 7 6 6 6 6 7 7 6 7 8 9 10 10 11 12 13 14 14 16 18 19 19 19 19 18 19 19 17 14 9 4 3 5 3 7 19 16 15 19 17 21 22 21 26 24 21 22 21 22 23 23 22 21 20 19 19
27 27 28 29 30 30 29 28 27 25 24 23 22 21 21 20 20 19 17 18 19 18 17 17 16 15 12 10 7 4 3 4 6 7 8 7 7 8 8 8 9 9 11 11 12 13 13 16 18 19 19 18 17 17 19 19 17 15 12 5 4 3 1 9 12 9 15 18 16 21 23 24 28 25 23 23 22 22 21 22 21 18 18 18 17
21 25 27 28 29 28 28 27 25 24 23 22 22 22 22 22 23 22 22 22 18 16 17 18 17 14 12 10 6 3 3 5 6 7 7 7 7 8 8 8 8 9 10 10 12 13 14 17 18 18 19 17 16 16 18 20 17 18 19 12 7 5 5 10 8 5 12 14 14 19 22 26 29 25 25 25 24 23 21 21 21 19 18 18 18
16 21 23 25 26 25 25 24 23 23 23 22 22 22 23 23 24 24 25 23 19 17 17 18 17 14 12 9 7 7 7 7 7 6 6 5 6 7 8 8 8 8 9 11 13 14 16 18 18 18 18 17 17 17 18 21 19 19 21 18 15 14 11 9 6 6 8 10 16 21 22 26 28 26 28 29 28 25 22 21 20 20 20 19 20
17 20 22 24 25 24 23 23 23 23 23 23 21 22 24 24 24 24 23 21 21 21 19 19 17 14 12 10 9 8 8 6 5 6 7 6 6 7 8 8 8 9 10 11 14 16 17 18 18 18 18 19 19 19 19 21 20 19 22 21 18 18 17 14 13 11 6 6 13 18 23 29 28 27 29 31 28 24 23 23 21 20 20 19 19
19 22 24 24 24 23 23 22 23 23 23 23 22 23 24 24 24 23 21 20 21 21 20 19 17 13 12 11 10 9 7 6 4 5 6 7 7 7 8 9 9 10 10 12 15 16 17 17 17 18 19 19 19 19 20 21 20 20 22 22 20 19 18 17 19 18 8 5 7 9 18 26 27 28 31 30 25 24 27 28 27 25 22 20 19
19 24 24 23 23 22 23 22 22 22 23 22 22 23 23 22 22 21 22 22 21 21 20 18 16 13 12 11 10 10 8 7 6 5 5 6 7 8 8 9 10 9 10 13 16 17 17 17 16 17 19 19 19 20 21 21 21 21 21 21 20 20 18 14 17 19 12 7 7 6 11 16 17 22 29 28 22 24 27 27 29 30 27 24 21
19 24 24 22 23 22 22 22 21 22 22 22 22 22 21 21 21 21 22 22 21 21 20 18 16 13 11 11 11 11 10 8 7 7 6 6 7 8 8 9 10 10 12 16 17 17 17 17 17 17 18 19 19 21 22 22 22 21 21 21 19 18 16 13 14 17 13 9 8 6 10 14 12 15 24 25 21 24 27 26 30 32 30 30 26
Wind_Direction
149 148 146 146 144 143 143 141 138 139 138 141 140 137 132 127 123 120 120 117 110 109 112 106 101 100 101 102 104 107 108 108 105 104 101 98 94 91 90 88 89 89 92 94 94 92 91 89 86 85 86 87 87 85 85 85 85 86 86 83 81 80 84 86 88 90 90 92 97 98 94 90 85 85 87 90 89 86 81 79 81 81 76 74 74
150 147 146 146 145 145 145 144 141 141 141 142 140 137 133 129 126 124 125 119 114 114 113 106 104 105 104 105 107 109 110 110 107 106 103 99 97 94 93 91 90 90 93 94 93 91 90 90 88 87 87 90 88 85 82 81 82 82 81 80 78 78 84 89 88 89 89 91 96 100 98 94 92 91 90 89 88 85 83 79 75 75 76 72 67
146 146 146 145 147 146 147 148 145 143 143 142 140 138 134 132 130 129 128 122 120 120 116 111 109 108 107 108 109 112 113 112 110 108 104 102 99 96 95 94 93 93 96 95 93 91 92 92 90 89 87 87 84 81 79 78 78 80 81 82 80 76 83 91 93 91 93 94 88 90 99 99 95 94 91 89 85 82 79 79 71 67 75 76 71
145 145 145 146 147 147 148 149 147 145 144 142 141 138 136 135 133 133 130 127 127 125 121 116 113 111 111 110 111 113 113 113 110 108 106 104 100 97 96 97 97 97 99 97 93 92 94 92 88 87 83 80 77 75 77 78 78 78 82 87 86 83 87 91 98 100 102 99 82 73 88 99 98 92 89 86 83 81 78 82 73 61 68 72 71
145 144 146 146 148 149 149 150 147 145 144 143 142 139 137 137 136 135 133 131 130 128 126 121 117 116 115 114 115 116 115 114 111 108 105 102 101 101 100 100 100 101 102 99 95 94 95 90 85 81 77 74 70 71 77 82 73 65 69 87 102 102 97 92 100 108 117 115 86 61 56 76 98 92 86 85 80 83 87 90 84 66 64 71 71
145 145 147 148 150 150 149 150 147 145 144 143 142 142 140 139 138 138 136 134 131 130 129 125 122 121 120 119 121 119 116 118 118 116 110 104 101 101 102 102 105 106 105 103 97 98 98 90 84 76 73 70 67 70 75 82 67 51 54 94 125 129 127 123 126 131 144 159 149 75 46 44 87 96 95 92 84 86 94 98 97 87 72 74 79
145 146 149 150 150 150 151 151 148 146 144 143 144 144 142 140 141 140 138 134 133 133 131 129 127 127 125 124 125 121 118 124 126 125 121 116 113 109 110 111 114 107 103 106 100 101 104 92 84 78 72 69 67 66 68 73 61 49 65 114 134 143 150 155 167 178 191 213 249 241 219 345 75 98 103 99 91 86 94 103 104 102 85 70 78
145 147 150 151 151 151 151 151 149 148 144 143 144 144 144 143 144 141 137 135 135 134 133 132 130 129 126 125 126 123 125 130 131 132 131 129 128 126 123 122 122 112 102 104 103 103 104 95 85 80 73 68 66 64 63 59 52 58 88 123 136 146 155 167 179 214 259 311 314 256 206 206 87 98 103 101 98 92 97 106 108 106 93 70 72
145 148 151 151 152 152 150 151 150 147 143 142 144 145 145 145 145 140 137 137 136 135 135 134 131 129 127 128 129 131 136 141 145 146 145 143 144 138 131 129 129 120 103 98 106 109 103 98 88 82 74 69 69 67 60 51 56 78 106 125 135 146 145 151 93 352 357 16 23 177 180 183 93 95 105 103 103 105 102 101 105 106 99 85 82
146 149 152 152 152 153 151 152 149 145 142 143 145 146 146 145 144 141 139 138 137 139 138 135 133 130 129 131 132 137 141 147 155 161 164 163 159 151 144 140 136 123 109 111 126 116 109 105 92 82 75 73 74 72 60 55 75 101 119 128 135 144 131 97 34 26 30 48 127 162 167 171 64 75 107 110 107 115 106 86 88 95 96 91 91
148 150 152 152 152 155 153 152 149 144 143 145 146 146 145 144 143 142 141 139 141 143 141 138 134 131 130 125 126 129 131 132 135 144 158 169 168 161 156 154 148 133 129 152 155 122 116 112 97 85 76 77 78 75 62 63 97 120 130 135 141 145 125 45 24 37 39 82 154 164 160 157 32 43 100 128 116 122 121 95 90 92 91 87 86
150 151 152 152 152 155 155 154 150 146 146 146 146 145 144 145 145 144 142 142 144 145 141 137 132 130 126 119 119 117 119 118 114 117 127 148 166 170 166 161 160 153 149 166 166 137 132 123 105 91 80 81 80 76 63 68 108 134 140 139 146 136 85 14 21 42 41 117 167 174 172 225 9 27 69 150 137 135 139 128 109 100 95 94 89
150 152 152 152 153 156 156 155 152 148 148 146 146 146 145 146 146 146 145 145 145 144 140 135 131 127 120 113 111 107 109 112 109 109 113 126 148 168 173 166 168 171 165 162 164 151 143 134 114 97 85 83 78 77 65 68 107 142 146 144 149 95 33 18 30 43 45 149 179 185 189 354 11 22 29 150 155 161 157 157 134 118 111 106 105
151 153 152 152 152 155 155 153 151 149 148 148 149 148 146 148 149 148 147 146 145 144 139 134 130 124 114 107 103 99 102 107 106 104 108 114 127 153 172 174 174 181 180 160 155 153 150 141 124 106 91 87 77 76 66 64 96 143 154 153 149 60 28 29 42 46 49 164 189 192 206 354 11 16 14 346 167 165 149 149 138 129 121 111 118
153 153 151 151 151 153 153 151 150 150 151 150 151 149 148 150 152 150 147 147 146 143 138 134 129 119 109 101 96 91 88 93 97 95 97 99 108 132 162 178 180 183 187 167 154 159 155 145 134 122 102 94 81 73 64 61 78 134 163 163 150 39 10 23 39 44 46 171 200 218 251 329 352 3 4 343 320 154 114 117 105 108 111 112 119
152 152 151 150 149 151 151 151 152 151 152 153 153 150 151 154 153 150 147 148 147 144 138 134 126 116 108 97 90 81 76 79 82 83 85 88 93 111 139 170 182 186 190 181 170 168 163 155 148 140 119 100 86 74 60 54 60 108 168 187 195 3 342 11 39 43 36 179 210 255 272 309 336 349 351 340 328 110 98 119 110 111 119 125 125
151 151 150 149 149 150 151 154 154 152 152 153 153 152 153 155 154 151 149 150 148 144 139 133 123 114 108 99 91 81 76 70 66 67 66 68 74 89 106 138 171 187 195 194 186 175 175 169 163 163 144 111 86 72 57 47 42 62 147 227 221 256 310 358 37 38 22 277 219 258 273 298 328 338 340 332 313 130 126 149 137 125 132 132 130
149 149 148 148 149 151 153 156 156 152 152 153 153 153 154 154 154 151 150 151 148 144 140 132 124 118 113 106 98 87 83 71 61 57 50 50 57 69 77 89 121 164 190 198 198 187 194 190 192 209 212 230 28 27 24 25 15 4 336 313 243 258 275 336 17 9 7 334 237 258 276 290 316 325 332 325 297 197 165 174 151 139 142 131 137
145 145 144 147 149 152 155 157 157 153 153 154 153 153 154 154 153 152 151 153 149 145 140 135 130 125 118 109 98 91 90 73 61 56 47 47 50 57 62 67 77 98 150 190 202 204 213 216 229 244 266 277 293 304 310 320 322 328 313 312 276 260 261 283 327 318 346 327 259 256 265 272 295 314 324 320 300 227 191 197 177 165 165 146 151
143 143 142 146 150 155 159 158 157 155 155 155 154 154 155 155 154 153 153 155 151 145 142 141 138 129 123 112 99 97 95 75 61 50 45 50 52 51 53 55 58 66 78 113 202 223 234 243 258 266 279 286 294 296 297 298 298 305 294 295 290 272 267 274 292 292 321 323 261 246 251 263 280 296 314 318 303 248 206 216 202 184 179 171 166
142 143 144 148 152 160 160 158 158 157 157 156 155 154 155 156 155 155 157 158 152 148 148 147 143 136 130 120 110 105 96 79 63 46 42 48 47 45 46 48 50 52 53 51 40 252 261 270 278 284 290 294 298 296 296 296 295 299 289 283 287 286 285 285 291 286 301 312 258 248 256 262 269 276 294 308 301 269 225 211 206 193 184 185 186
147 147 149 152 157 162 160 160 160 158 159 157 156 155 156 158 156 158 161 160 154 153 157 155 151 143 133 128 132 119 102 81 51 34 36 43 40 40 38 38 45 45 42 36 30 10 314 296 293 293 294 296 298 297 297 296 294 295 286 281 285 288 289 291 292 280 288 298 269 262 263 256 258 266 281 293 293 275 244 221 231 227 188 194 201
154 152 153 158 160 159 160 162 161 159 161 160 159 158 159 160 159 162 164 162 160 162 163 157 152 146 132 128 141 117 104 90 41 21 13 23 27 31 29 27 29 28 24 18 13 4 338 320 316 309 304 303 305 308 307 304 301 293 285 286 289 290 289 291 294 279 277 288 276 269 264 255 256 261 271 280 285 282 265 244 246 257 200 206 213
158 155 155 160 159 157 161 161 161 162 162 162 163 162 161 161 163 166 166 166 164 166 164 155 149 145 136 129 138 122 111 108 60 12 335 348 354 12 16 9 8 5 5 3 356 344 331 325 327 319 310 312 313 316 314 312 312 303 297 296 294 292 287 286 293 283 271 280 278 272 264 257 256 260 268 272 277 282 276 263 256 263 226 221 221
157 155 156 159 158 160 161 159 162 164 163 165 166 165 161 161 166 167 170 172 168 166 165 161 153 141 138 124 123 147 145 154 186 281 299 317 313 329 346 341 342 341 342 346 342 336 332 332 333 324 318 323 322 321 316 314 317 311 305 299 294 293 290 287 287 283 272 273 275 271 264 258 257 259 263 269 274 276 275 272 264 263 248 235 223
153 156 157 160 161 161 161 162 164 163 164 165 164 163 159 161 166 169 175 176 170 167 166 169 167 157 158 143 140 190 192 206 242 271 293 296 295 306 326 327 326 329 334 337 334 329 329 332 331 325 322 324 323 322 320 319 319 315 310 303 294 289 291 291 288 283 275 268 269 269 265 259 258 259 262 268 273 272 271 271 265 260 249 240 228
151 158 159 161 163 162 163 164 163 161 164 161 157 157 156 161 163 164 169 167 168 171 167 170 179 182 185 185 187 201 193 201 242 260 281 277 294 310 315 319 319 321 321 325 328 323 321 321 322 323 319 317 316 317 317 313 309 307 309 308 300 294 294 293 289 286 276 263 263 268 265 260 258 261 265 267 269 268 266 268 264 258 247 240 234
153 157 158 160 161 163 165 163 160 163 165 158 156 157 158 164 163 161 161 157 164 169 167 168 177 185 188 203 208 192 181 215 266 267 280 275 291 306 305 309 309 310 307 311 318 316 311 308 316 321 317 313 311 312 311 306 303 306 309 308 304 303 301 296 293 295 285 267 263 267 265 263 263 264 265 264 264 265 264 265 261 256 248 240 236
154 156 156 155 158 163 164 161 162 164 162 157 158 162 166 172 172 169 165 163 172 178 179 175 177 194 207 211 197 186 200 246 270 276 299 293 286 289 288 300 304 305 309 314 320 322 316 309 312 314 311 309 306 306 307 303 305 310 312 310 308 306 303 299 296 299 297 279 268 269 269 266 266 265 264 261 262 264 263 263 259 256 250 241 240
152 157 156 153 157 161 162 162 164 165 159 154 157 163 171 177 177 178 175 175 182 180 176 175 180 203 198 174 181 216 252 254 258 278 300 296 289 293 296 311 317 316 316 315 318 315 307 301 303 309 311 310 309 310 310 309 311 313 312 311 310 307 303 300 297 296 298 291 275 271 275 271 267 266 263 260 263 264 263 260 257 256 252 246 242
150 158 157 153 157 159 161 163 165 167 162 157 159 164 171 174 174 175 175 174 170 161 162 170 182 181 161 168 214 248 257 253 271 290 303 306 303 308 313 317 322 325 316 307 303 301 302 308 316 324 324 321 321 322 321 320 319 317 314 310 310 310 307 304 302 299 298 296 287 279 280 274 267 265 261 260 262 262 261 259 258 255 252 249 243
152 159 157 153 155 158 161 161 157 158 161 163 163 160 160 161 160 160 166 171 166 156 158 164 169 174 175 195 228 244 254 265 298 299 305 322 319 321 320 317 324 325 315 315 321 322 327 336 338 335 330 327 326 326 325 322 319 318 317 314 313 313 311 309 307 305 302 299 292 284 279 272 267 265 264 266 263 259 258 259 260 258 254 252 243
153 156 155 151 153 157 156 155 153 153 155 160 163 157 154 156 156 156 162 167 168 164 160 158 169 189 195 193 189 183 225 278 309 304 303 319 319 326 331 334 334 321 322 334 339 339 342 344 341 336 333 332 330 328 327 324 323 323 321 320 318 315 314 313 309 306 306 304 299 289 278 275 275 275 276 274 267 261 260 260 261 260 256 254 246
149 149 146 145 152 157 152 149 154 157 156 155 157 156 156 161 160 161 163 160 165 168 162 169 182 189 191 184 173 146 129 296 313 310 303 309 318 329 339 345 336 329 338 343 339 343 347 345 343 340 338 337 336 334 332 330 330 330 328 326 323 321 319 316 312 309 307 305 303 296 285 283 284 284 284 277 269 266 263 261 261 261 258 254 249
139 135 132 143 154 158 152 153 156 154 154 153 152 153 157 161 159 162 165 164 173 173 166 175 181 181 182 173 162 135 124 310 315 316 308 311 330 338 343 339 337 340 341 341 343 352 354 350 349 347 346 346 343 341 339 335 333 333 332 329 325 321 317 313 309 305 303 301 300 297 291 289 288 288 287 279 274 271 267 266 264 262 260 255 251
145 142 141 150 157 159 157 157 156 149 151 152 151 156 161 162 160 163 167 171 177 174 167 173 174 179 177 158 151 132 118 313 286 306 323 336 340 341 345 342 347 351 351 358 4 5 1 358 356 354 352 349 346 344 342 337 334 336 335 332 328 324 319 316 310 305 303 300 297 296 294 290 287 288 287 284 281 277 272 271 269 265 263 260 254
153 152 151 153 154 158 159 156 153 151 153 154 155 158 160 160 160 164 168 171 176 171 164 166 171 178 166 141 142 134 107 45 295 325 347 2 6 5 5 4 4 4 6 10 9 5 3 1 359 359 356 350 347 344 342 341 339 338 338 337 334 329 327 325 322 318 312 304 301 300 297 291 290 294 291 284 281 281 281 279 275 269 267 266 260
155 152 149 147 146 152 160 158 151 152 155 156 159 156 153 155 158 163 166 167 171 167 157 159 166 163 146 134 140 136 104 64 360 9 8 14 29 30 25 22 14 11 11 7 2 359 2 2 360 359 358 353 350 347 344 345 342 339 341 342 338 336 334 333 332 330 324 316 311 308 305 300 299 303 302 293 286 286 289 288 283 275 272 270 264
155 149 145 146 149 155 163 159 149 154 157 158 160 154 152 155 156 161 163 164 166 162 153 154 155 145 141 137 131 120 99 74 40 47 49 30 33 28 24 21 13 11 8 8 9 5 5 4 1 359 356 356 357 355 351 346 342 343 345 344 343 345 343 343 347 348 343 333 323 319 318 314 306 304 307 305 300 297 293 291 289 279 275 271 265
156 151 151 155 159 161 161 156 155 163 162 161 161 156 153 156 157 155 154 158 161 155 149 151 149 141 137 125 104 99 89 71 51 59 53 35 32 28 27 19 11 12 14 19 16 10 9 5 3 0 356 357 359 359 354 347 344 345 344 345 349 351 350 357 2 356 353 350 341 335 332 326 314 306 309 311 309 307 302 297 292 282 277 275 271
159 155 157 160 161 159 159 159 165 171 170 167 164 160 158 158 157 150 146 151 154 150 144 144 146 139 127 110 91 82 78 69 52 46 37 29 28 24 22 17 10 11 19 22 16 12 12 6 2 2 1 1 358 355 356 353 349 347 341 340 345 351 2 13 360 357 3 4 356 349 344 336 325 319 316 314 313 312 309 303 296 286 281 277 274
162 158 159 159 158 158 161 163 167 171 173 170 165 163 163 163 158 148 143 142 144 145 140 138 136 127 112 100 91 84 86 89 73 60 50 37 25 17 16 20 17 14 17 19 16 13 11 8 5 4 5 3 357 356 4 1 349 344 336 330 335 346 5 9 351 358 12 4 1 359 355 348 338 334 326 318 313 311 309 306 298 288 284 281 276
160 159 158 156 157 160 161 162 166 169 170 170 167 163 160 160 154 144 141 139 138 138 135 132 123 113 104 101 102 98 98 95 75 56 46 36 27 29 36 36 27 20 18 16 15 13 10 13 12 8 5 1 358 2 11 8 356 352 342 323 325 337 349 356 349 354 3 357 359 1 360 356 347 341 332 324 319 315 312 309 303 293 288 284 279
159 158 156 154 156 160 161 160 164 165 165 167 168 162 153 149 145 140 140 138 135 131 128 123 114 111 109 106 112 105 87 79 65 40 30 30 36 47 49 40 31 23 18 16 18 18 16 17 16 11 7 2 357 1 11 13 12 12 356 309 294 328 336 341 338 339 347 351 355 357 357 355 351 349 342 333 327 324 319 316 311 302 295 287 280
162 160 157 157 158 160 162 162 162 162 162 164 164 158 150 145 143 140 137 134 132 129 126 124 120 117 112 107 114 109 72 57 49 32 26 35 47 48 41 36 34 28 25 28 28 24 23 22 17 12 10 5 357 358 8 14 21 23 11 343 305 325 322 327 326 321 336 343 350 355 356 354 353 355 352 345 338 330 324 323 320 311 303 294 286
162 160 159 159 159 159 162 163 161 158 159 161 161 158 154 150 148 146 142 137 133 133 133 132 127 117 111 111 107 81 51 58 52 39 38 46 48 44 42 41 39 34 30 31 29 25 26 24 18 14 14 13 9 9 10 14 23 23 19 16 358 345 319 320 324 320 331 338 348 353 354 353 353 356 356 353 348 339 330 326 324 319 311 301 293
161 161 160 158 156 157 160 162 162 159 158 160 161 160 156 152 152 150 146 143 139 140 137 129 123 116 111 101 76 63 69 73 63 55 64 66 56 51 50 47 42 34 25 25 28 29 30 26 23 24 25 28 28 26 19 18 21 18 19 22 16 11 3 353 356 341 329 335 343 349 353 352 352 356 358 357 357 355 346 334 329 325 319 310 300
161 161 159 157 156 155 156 159 161 159 158 160 162 162 157 153 152 148 146 147 144 140 133 124 119 112 101 86 76 80 86 87 73 66 74 73 63 56 51 44 40 32 26 32 35 33 31 29 32 34 35 39 39 35 30 27 22 14 15 17 18 20 19 20 17 0 338 325 337 344 349 350 353 358 1 1 6 15 10 1 355 346 337 327 313
160 158 157 156 156 154 152 154 157 158 158 159 161 161 157 153 151 148 146 146 143 136 129 123 118 107 97 94 95 99 102 110 106 81 74 67 62 57 51 43 35 33 35 40 39 35 35 34 37 38 36 39 41 38 37 36 30 21 17 14 14 18 19 22 15 3 349 334 340 340 343 348 351 356 0 5 16 27 21 18 16 9 0 349 335
155 155 155 154 156 156 155 154 155 158 158 158 157 155 156 155 153 151 148 144 140 134 127 123 116 104 103 110 111 114 116 119 115 97 81 74 64 53 46 42 41 43 44 43 40 40 42 39 42 43 38 39 41 41 42 41 36 30 25 21 20 19 14 11 8 1 356 350 345 336 341 345 342 346 355 4 19 26 22 23 21 17 15 8 357
149 154 157 156 158 159 158 155 155 157 155 155 156 156 158 158 154 152 149 144 138 134 128 123 114 102 113 128 126 124 123 120 113 97 85 74 61 51 46 47 55 58 50 46 46 49 49 45 48 48 42 41 44 44 43 39 34 30 28 28 30 26 17 10 4 0 358 350 344 341 341 341 333 336 351 3 17 21 23 25 19 17 17 13 8